Вернуться в каталог

STARLINK-32476

АктивенСвязьVLEO
NORAD 61550·PAYLOAD·🇺🇸 United States

Запущен Oct 15, 2024 с Vandenberg Space Force Base

Loading…

Ближайшие Пролёты (ближайшие 24 часа)

TLE

СвежийSource: CelesTrak SupGP

Эпоха: Sep 14, 2026, 21:30 UTC

1 61550C 24184U   26257.89631944  .00023821  00000+0  70255-3 0  2576
2 61550  53.1580 211.9659 0001618  95.8896 116.0312 15.34433589    15

Отслеживайте STARLINK-32476 в реальном времени с AllMySat

Download on the App Store